Time,TemperatureF,DewpointF,PressureIn,WindDirection,WindDirectionDegrees,WindSpeedMPH,WindSpeedGustMPH,Humidity,HourlyPrecipIn,Conditions,Clouds,dailyrainin,SolarRadiationWatts/m^2,SoftwareType,DateUTC
2013-01-12 00:02:00,-1.0,-7.0,-100.00,ESE,122,1.0,5.0,76,0.00,,,0.00,0.000000,,2013-01-12 07:02:00,
2013-01-12 00:11:00,-1.0,-7.0,-100.00,ESE,122,1.0,5.0,76,0.00,,,0.00,0.000000,,2013-01-12 07:11:00,
2013-01-12 00:32:00,-5.0,-11.0,-100.00,WNW,293,1.0,6.0,73,0.00,,,0.00,0.000000,,2013-01-12 07:32:00,
2013-01-12 00:42:00,-5.0,-11.0,-100.00,WNW,293,1.0,6.0,73,0.00,,,0.00,0.000000,,2013-01-12 07:42:00,
2013-01-12 00:52:00,-5.0,-11.0,-100.00,WNW,293,1.0,6.0,73,0.00,,,0.00,0.000000,,2013-01-12 07:52:00,
2013-01-12 01:02:00,-5.0,-11.0,-100.00,WNW,293,1.0,6.0,73,0.00,,,0.00,0.000000,,2013-01-12 08:02:00,
2013-01-12 01:11:00,-5.0,-11.0,-100.00,WNW,293,1.0,6.0,73,0.00,,,0.00,0.000000,,2013-01-12 08:11:00,
2013-01-12 01:42:00,-7.0,-13.0,-100.00,NE,43,2.0,6.0,73,0.00,,,0.00,0.000000,,2013-01-12 08:42:00,
2013-01-12 01:52:00,-7.0,-13.0,-100.00,NE,43,2.0,6.0,73,0.00,,,0.00,0.000000,,2013-01-12 08:52:00,
2013-01-12 02:02:00,-7.0,-13.0,-100.00,NE,43,2.0,6.0,73,0.00,,,0.00,0.000000,,2013-01-12 09:02:00,
2013-01-12 02:11:00,-7.0,-13.0,-100.00,NE,43,2.0,6.0,73,0.00,,,0.00,0.000000,,2013-01-12 09:11:00,
2013-01-12 02:32:00,-9.0,-15.0,-100.00,North,1,2.0,6.0,73,0.00,,,0.00,0.000000,,2013-01-12 09:32:00,
2013-01-12 02:42:00,-9.0,-15.0,-100.00,North,1,2.0,6.0,73,0.00,,,0.00,0.000000,,2013-01-12 09:42:00,
2013-01-12 02:53:00,-9.0,-15.0,-100.00,North,1,2.0,6.0,73,0.00,,,0.00,0.000000,,2013-01-12 09:53:00,
2013-01-12 03:02:00,-9.0,-15.0,-100.00,North,1,2.0,6.0,73,0.00,,,0.00,0.000000,,2013-01-12 10:02:00,
2013-01-12 03:11:00,-9.0,-15.0,-100.00,North,1,2.0,6.0,73,0.00,,,0.00,0.000000,,2013-01-12 10:11:00,
2013-01-12 03:43:00,-9.0,-15.0,-100.00,NE,40,1.0,3.0,74,0.00,,,0.00,0.000000,,2013-01-12 10:43:00,
2013-01-12 03:52:00,-9.0,-15.0,-100.00,NE,40,1.0,3.0,74,0.00,,,0.00,0.000000,,2013-01-12 10:52:00,
2013-01-12 04:02:00,-9.0,-15.0,-100.00,NE,40,1.0,3.0,74,0.00,,,0.00,0.000000,,2013-01-12 11:02:00,
2013-01-12 04:12:00,-9.0,-15.0,-100.00,NE,40,1.0,3.0,74,0.00,,,0.00,0.000000,,2013-01-12 11:12:00,
2013-01-12 04:33:00,-9.0,-15.0,-100.00,NNE,26,1.0,3.0,74,0.00,,,0.00,0.000000,,2013-01-12 11:33:00,
2013-01-12 04:42:00,-9.0,-15.0,-100.00,NNE,26,1.0,3.0,74,0.00,,,0.00,0.000000,,2013-01-12 11:42:00,
2013-01-12 04:53:00,-9.0,-15.0,-100.00,NNE,26,1.0,3.0,74,0.00,,,0.00,0.000000,,2013-01-12 11:53:00,
2013-01-12 05:02:00,-9.0,-15.0,-100.00,NNE,26,1.0,3.0,74,0.00,,,0.00,0.000000,,2013-01-12 12:02:00,
2013-01-12 05:11:00,-9.0,-15.0,-100.00,NNE,26,1.0,3.0,74,0.00,,,0.00,0.000000,,2013-01-12 12:11:00,
2013-01-12 05:33:00,-11.0,-17.0,-100.00,NNE,28,1.0,3.0,73,0.00,,,0.00,0.000000,,2013-01-12 12:33:00,
2013-01-12 05:43:00,-11.0,-17.0,-100.00,NNE,28,1.0,3.0,73,0.00,,,0.00,0.000000,,2013-01-12 12:43:00,
2013-01-12 05:53:00,-11.0,-17.0,-100.00,NNE,28,1.0,3.0,73,0.00,,,0.00,0.000000,,2013-01-12 12:53:00,
2013-01-12 06:02:00,-11.0,-17.0,-100.00,NNE,28,1.0,3.0,73,0.00,,,0.00,0.000000,,2013-01-12 13:02:00,
2013-01-12 06:12:00,-11.0,-17.0,-100.00,NNE,28,1.0,3.0,73,0.00,,,0.00,0.000000,,2013-01-12 13:12:00,
2013-01-12 06:43:00,-12.0,-19.0,-100.00,SSE,148,1.0,3.0,71,0.00,,,0.00,0.000000,,2013-01-12 13:43:00,
2013-01-12 06:53:00,-12.0,-19.0,-100.00,SSE,148,1.0,3.0,71,0.00,,,0.00,0.000000,,2013-01-12 13:53:00,
2013-01-12 07:02:00,-12.0,-19.0,-100.00,SSE,148,1.0,3.0,71,0.00,,,0.00,0.000000,,2013-01-12 14:02:00,
2013-01-12 07:12:00,-12.0,-19.0,-100.00,SSE,148,1.0,3.0,71,0.00,,,0.00,0.000000,,2013-01-12 14:12:00,
2013-01-12 07:33:00,-11.0,-18.0,-100.00,East,93,2.0,4.0,69,0.00,,,0.00,0.000000,,2013-01-12 14:33:00,
2013-01-12 07:43:00,-11.0,-18.0,-100.00,East,93,2.0,4.0,69,0.00,,,0.00,0.000000,,2013-01-12 14:43:00,
2013-01-12 07:53:00,-11.0,-18.0,-100.00,East,93,2.0,4.0,69,0.00,,,0.00,0.000000,,2013-01-12 14:53:00,
2013-01-12 08:03:00,-11.0,-18.0,-100.00,East,93,2.0,4.0,69,0.00,,,0.00,0.000000,,2013-01-12 15:03:00,
2013-01-12 08:12:00,-11.0,-18.0,-100.00,East,93,2.0,4.0,69,0.00,,,0.00,0.000000,,2013-01-12 15:12:00,
2013-01-12 08:33:00,-13.0,-20.0,-100.00,East,98,1.0,5.0,71,0.00,,,0.00,0.000000,,2013-01-12 15:33:00,
2013-01-12 08:43:00,-13.0,-20.0,-100.00,East,98,1.0,5.0,71,0.00,,,0.00,0.000000,,2013-01-12 15:43:00,
2013-01-12 08:53:00,-13.0,-20.0,-100.00,East,98,1.0,5.0,71,0.00,,,0.00,0.000000,,2013-01-12 15:53:00,
2013-01-12 09:02:00,-13.0,-20.0,-100.00,East,98,1.0,5.0,71,0.00,,,0.00,0.000000,,2013-01-12 16:02:00,
2013-01-12 09:12:00,-13.0,-20.0,-100.00,East,98,1.0,5.0,71,0.00,,,0.00,0.000000,,2013-01-12 16:12:00,
2013-01-12 09:33:00,-9.0,-16.0,-100.00,SSE,165,1.0,7.0,70,0.00,,,-99.99,4.000000,,2013-01-12 16:33:00,
2013-01-12 09:43:00,-9.0,-16.0,-100.00,SSE,165,1.0,7.0,70,0.00,,,-99.99,4.000000,,2013-01-12 16:43:00,
2013-01-12 09:53:00,-9.0,-16.0,-100.00,SSE,165,1.0,7.0,70,0.00,,,-99.99,4.000000,,2013-01-12 16:53:00,
2013-01-12 10:02:00,-9.0,-16.0,-100.00,SSE,165,1.0,7.0,70,0.00,,,-99.99,4.000000,,2013-01-12 17:02:00,
2013-01-12 10:12:00,-9.0,-16.0,-100.00,SSE,165,1.0,7.0,70,0.00,,,-99.99,4.000000,,2013-01-12 17:12:00,
2013-01-12 10:33:00,-3.0,-10.0,-100.00,NNW,338,3.0,6.0,70,0.00,,,0.00,19.000000,,2013-01-12 17:33:00,
2013-01-12 10:43:00,-3.0,-10.0,-100.00,NNW,338,3.0,6.0,70,0.00,,,0.00,19.000000,,2013-01-12 17:43:00,
2013-01-12 10:53:00,-3.0,-10.0,-100.00,NNW,338,3.0,6.0,70,0.00,,,0.00,19.000000,,2013-01-12 17:53:00,
2013-01-12 11:02:00,-3.0,-10.0,-100.00,NNW,338,3.0,6.0,70,0.00,,,0.00,19.000000,,2013-01-12 18:02:00,
2013-01-12 11:12:00,-3.0,-10.0,-100.00,NNW,338,3.0,6.0,70,0.00,,,0.00,19.000000,,2013-01-12 18:12:00,
2013-01-12 11:33:00,0.0,-8.0,-100.00,WNW,295,2.0,5.0,68,0.00,,,0.00,46.000000,,2013-01-12 18:33:00,
2013-01-12 11:43:00,0.0,-8.0,-100.00,WNW,295,2.0,5.0,68,0.00,,,0.00,46.000000,,2013-01-12 18:43:00,
2013-01-12 11:53:00,0.0,-8.0,-100.00,WNW,295,2.0,5.0,68,0.00,,,0.00,46.000000,,2013-01-12 18:53:00,
2013-01-12 12:03:00,0.0,-8.0,-100.00,WNW,295,2.0,5.0,68,0.00,,,0.00,46.000000,,2013-01-12 19:03:00,
2013-01-12 12:12:00,0.0,-8.0,-100.00,WNW,295,2.0,5.0,68,0.00,,,0.00,46.000000,,2013-01-12 19:12:00,
2013-01-12 12:43:00,7.0,-3.0,-100.00,ENE,67,1.0,4.0,63,0.00,,,0.00,79.000000,,2013-01-12 19:43:00,
2013-01-12 12:53:00,7.0,-3.0,-100.00,ENE,67,1.0,4.0,63,0.00,,,0.00,79.000000,,2013-01-12 19:53:00,
2013-01-12 13:02:00,7.0,-3.0,-100.00,ENE,67,1.0,4.0,63,0.00,,,0.00,79.000000,,2013-01-12 20:02:00,
2013-01-12 13:12:00,7.0,-3.0,-100.00,ENE,67,1.0,4.0,63,0.00,,,0.00,79.000000,,2013-01-12 20:12:00,
2013-01-12 13:33:00,5.0,-4.0,-100.00,SW,233,2.0,4.0,65,0.00,,,0.00,49.000000,,2013-01-12 20:33:00,
2013-01-12 13:43:00,5.0,-4.0,-100.00,SW,233,2.0,4.0,65,0.00,,,0.00,49.000000,,2013-01-12 20:43:00,
2013-01-12 13:53:00,5.0,-4.0,-100.00,SW,233,2.0,4.0,65,0.00,,,0.00,49.000000,,2013-01-12 20:53:00,
2013-01-12 14:02:00,5.0,-4.0,-100.00,SW,233,2.0,4.0,65,0.00,,,0.00,49.000000,,2013-01-12 21:02:00,
2013-01-12 14:12:00,5.0,-4.0,-100.00,SW,233,2.0,4.0,65,0.00,,,0.00,49.000000,,2013-01-12 21:12:00,
2013-01-12 14:33:00,9.0,-1.0,-100.00,SE,137,1.0,3.0,63,0.00,,,0.00,66.000000,,2013-01-12 21:33:00,
2013-01-12 14:43:00,9.0,-1.0,-100.00,SE,137,1.0,3.0,63,0.00,,,0.00,66.000000,,2013-01-12 21:43:00,
2013-01-12 14:53:00,9.0,-1.0,-100.00,SE,137,1.0,3.0,63,0.00,,,0.00,66.000000,,2013-01-12 21:53:00,
2013-01-12 15:02:00,9.0,-1.0,-100.00,SE,137,1.0,3.0,63,0.00,,,0.00,66.000000,,2013-01-12 22:02:00,
2013-01-12 15:12:00,9.0,-1.0,-100.00,SE,137,1.0,3.0,63,0.00,,,0.00,66.000000,,2013-01-12 22:12:00,
2013-01-12 15:33:00,9.0,-3.0,-100.00,West,267,2.0,3.0,57,0.02,,,0.02,64.000000,,2013-01-12 22:33:00,
2013-01-12 15:43:00,9.0,-3.0,-100.00,West,267,2.0,3.0,57,0.02,,,0.02,64.000000,,2013-01-12 22:43:00,
2013-01-12 15:53:00,9.0,-3.0,-100.00,West,267,2.0,3.0,57,0.02,,,0.02,64.000000,,2013-01-12 22:53:00,
2013-01-12 16:02:00,9.0,-3.0,-100.00,West,267,2.0,3.0,57,0.02,,,0.02,64.000000,,2013-01-12 23:02:00,
2013-01-12 16:12:00,9.0,-3.0,-100.00,West,267,2.0,3.0,57,0.02,,,0.02,64.000000,,2013-01-12 23:12:00,
2013-01-12 16:43:00,4.0,-4.0,-100.00,SE,140,0.0,2.0,69,0.01,,,0.03,28.000000,,2013-01-12 23:43:00,
2013-01-12 16:53:00,4.0,-4.0,-100.00,SE,140,0.0,2.0,69,0.01,,,0.03,28.000000,,2013-01-12 23:53:00,
2013-01-12 17:02:00,4.0,-4.0,-100.00,SE,140,0.0,2.0,69,0.01,,,0.03,28.000000,,2013-01-13 00:02:00,
2013-01-12 17:12:00,4.0,-4.0,-100.00,SE,140,0.0,2.0,69,0.01,,,0.03,28.000000,,2013-01-13 00:12:00,
2013-01-12 17:33:00,2.0,-4.0,-100.00,NE,48,0.0,2.0,75,0.00,,,0.03,8.000000,,2013-01-13 00:33:00,
2013-01-12 17:43:00,2.0,-4.0,-100.00,NE,48,0.0,2.0,75,0.00,,,0.03,8.000000,,2013-01-13 00:43:00,
2013-01-12 17:53:00,2.0,-4.0,-100.00,NE,48,0.0,2.0,75,0.00,,,0.03,8.000000,,2013-01-13 00:53:00,
2013-01-12 18:02:00,2.0,-4.0,-100.00,NE,48,0.0,2.0,75,0.00,,,0.03,8.000000,,2013-01-13 01:02:00,
2013-01-12 18:12:00,2.0,-4.0,-100.00,NE,48,0.0,2.0,75,0.00,,,0.03,8.000000,,2013-01-13 01:12:00,
2013-01-12 18:43:00,1.0,-4.0,-100.00,ENE,64,0.0,3.0,78,0.00,,,0.03,0.000000,,2013-01-13 01:43:00,
2013-01-12 18:53:00,1.0,-4.0,-100.00,ENE,64,0.0,3.0,78,0.00,,,0.03,0.000000,,2013-01-13 01:53:00,
2013-01-12 19:02:00,1.0,-4.0,-100.00,ENE,64,0.0,3.0,78,0.00,,,0.03,0.000000,,2013-01-13 02:02:00,
2013-01-12 19:12:00,1.0,-4.0,-100.00,ENE,64,0.0,3.0,78,0.00,,,0.03,0.000000,,2013-01-13 02:12:00,
2013-01-12 19:43:00,1.0,-4.0,-100.00,North,357,1.0,3.0,80,0.00,,,0.03,0.000000,,2013-01-13 02:43:00,
2013-01-12 19:53:00,1.0,-4.0,-100.00,North,357,1.0,3.0,80,0.00,,,0.03,0.000000,,2013-01-13 02:53:00,
2013-01-12 20:02:00,1.0,-4.0,-100.00,North,357,1.0,3.0,80,0.00,,,0.03,0.000000,,2013-01-13 03:02:00,
2013-01-12 20:12:00,1.0,-4.0,-100.00,North,357,1.0,3.0,80,0.00,,,0.03,0.000000,,2013-01-13 03:12:00,
2013-01-12 20:33:00,3.0,-2.0,-100.00,East,90,2.0,3.0,79,0.00,,,0.03,0.000000,,2013-01-13 03:33:00,
2013-01-12 20:43:00,3.0,-2.0,-100.00,East,90,2.0,3.0,79,0.00,,,0.03,0.000000,,2013-01-13 03:43:00,
2013-01-12 20:53:00,3.0,-2.0,-100.00,East,90,2.0,3.0,79,0.00,,,0.03,0.000000,,2013-01-13 03:53:00,
2013-01-12 21:02:00,3.0,-2.0,-100.00,East,90,2.0,3.0,79,0.00,,,0.03,0.000000,,2013-01-13 04:02:00,
2013-01-12 21:12:00,3.0,-2.0,-100.00,East,90,2.0,3.0,79,0.00,,,0.03,0.000000,,2013-01-13 04:12:00,
2013-01-12 21:33:00,3.0,-2.0,-100.00,NNW,336,1.0,5.0,79,0.00,,,0.03,0.000000,,2013-01-13 04:33:00,
2013-01-12 21:43:00,3.0,-2.0,-100.00,NNW,336,1.0,5.0,79,0.00,,,0.03,0.000000,,2013-01-13 04:43:00,
2013-01-12 21:52:00,3.0,-2.0,-100.00,NNW,336,1.0,5.0,79,0.00,,,0.03,0.000000,,2013-01-13 04:52:00,
2013-01-12 22:03:00,3.0,-2.0,-100.00,NNW,336,1.0,5.0,79,0.00,,,0.03,0.000000,,2013-01-13 05:03:00,
2013-01-12 22:12:00,3.0,-2.0,-100.00,NNW,336,1.0,5.0,79,0.00,,,0.03,0.000000,,2013-01-13 05:12:00,
2013-01-12 22:33:00,3.0,-2.0,-100.00,ENE,62,2.0,3.0,79,0.00,,,0.03,0.000000,,2013-01-13 05:33:00,
2013-01-12 22:42:00,3.0,-2.0,-100.00,ENE,62,2.0,3.0,79,0.00,,,0.03,0.000000,,2013-01-13 05:42:00,
2013-01-12 22:53:00,3.0,-2.0,-100.00,ENE,62,2.0,3.0,79,0.00,,,0.03,0.000000,,2013-01-13 05:53:00,
2013-01-12 23:02:00,3.0,-2.0,-100.00,ENE,62,2.0,3.0,79,0.00,,,0.03,0.000000,,2013-01-13 06:02:00,
2013-01-12 23:12:00,3.0,-2.0,-100.00,ENE,62,2.0,3.0,79,0.00,,,0.03,0.000000,,2013-01-13 06:12:00,
2013-01-12 23:33:00,2.0,-3.0,-100.00,North,358,1.0,5.0,79,0.00,,,0.03,0.000000,,2013-01-13 06:33:00,
2013-01-12 23:42:00,2.0,-3.0,-100.00,North,358,1.0,5.0,79,0.00,,,0.03,0.000000,,2013-01-13 06:42:00,
2013-01-12 23:52:00,2.0,-3.0,-100.00,North,358,1.0,5.0,79,0.00,,,0.03,0.000000,,2013-01-13 06:52:00,